{"data":{"norad_id":60438,"epoch":"2026-05-24T21:58:38.612352Z","epoch_age_seconds":82033,"freshness":"FRESH","line1":"1 60438U 24144P   26144.91572468  .00000484  00000+0  25458-4 0  9998","line2":"2 60438  53.1618 222.0827 0000925  94.9687 265.1421 15.34389143101036","mean_motion":15.34389143,"eccentricity":9.25e-5,"inclination_deg":53.1618,"raan_deg":222.0827,"arg_perigee_deg":94.9687,"mean_anomaly_deg":265.1421,"bstar":2.5458e-5,"rev_number":10103,"period_min":93.848422127424,"perigee_km":462.10272898224,"apogee_km":463.36829039654,"semimajor_km":6840.8725096894,"source":"CELESTRAK","updated_at":"2026-05-25T13:38:19.275399Z"}}